Location: Bakersfield
(35.3730°N, 119.0180°W)
Time: 17:04:24
(UTC-07:00)

Daily predictions for brighter satellites

Satellite Brightness Start Highest point End
(mag) Time Altitude Azimuth Time Altitude Azimuth Time Altitude Azimuth
CENTAUR R/B 3.3 20:21:34 10° NNW 20:29:39 85° ENE 20:38:07 10° SSE
Cosmos 923 Rocket 4.4 20:24:58 10° SSW 20:30:16 75° WNW 20:35:35 10° NNE
Resurs 1-3 3.6 20:27:59 10° SSE 20:32:22 85° E 20:36:46 10° N
Meteor 1-29 3.8 20:34:54 10° NE 20:37:51 28° E 20:40:48 10° SSE
Cosmos 1455 Rocket 3.6 20:35:54 10° NNW 20:40:11 61° W 20:44:26 10° S
Cosmos 1939 Rocket 3.6 20:38:11 10° SE 20:41:39 33° ENE 20:45:09 10° N
Cosmos 2074 Rocket 4.1 20:36:02 10° N 20:42:12 59° E 20:48:22 10° SSE
Aureole 3 Rocket 3.6 20:38:01 10° S 20:44:21 71° E 20:48:50 10° NNE
ASTEX 1 4.4 20:40:40 10° SE 20:44:50 29° ENE 20:49:01 10° NNE
PSLV R/B 3.6 20:43:14 10° WNW 20:46:18 51° NNE 20:49:21 10° E
Meteor 2-4 Rocket 3.8 20:42:05 10° S 20:47:38 64° E 20:53:24 10° NNE
Cosmos 2184 Rocket 4.1 20:41:40 10° N 20:47:57 63° E 20:54:08 10° SSE
GENESIS II 4.2 20:45:27 10° NNW 20:49:24 84° ENE 20:53:09 11° SSE
Cosmos 1943 Rocket 4.1 20:45:52 10° NW 20:50:26 27° WSW 20:54:58 10° SSW
Hubble Space Telescope 2.5 20:47:58 10° SSW 20:50:33 16° SSE 20:52:26 13° SE
Resurs 01 Rocket 2.5 20:46:59 10° S 20:51:17 49° W 20:55:35 10° NNW
Spot 1 4.3 20:50:10 10° SSE 20:54:33 56° ENE 20:58:44 10° N
Helios 1A 3.0 20:55:23 10° SSE 20:59:34 72° ENE 21:03:46 10° N
Cosmos 405 Rocket 4.0 20:57:07 10° SSW 21:00:41 43° W 21:04:22 10° N
SL-27 R/B 3.8 20:59:19 10° SW 21:02:48 44° WNW 21:06:19 10° N
Cosmos 1441 Rocket 3.3 21:02:59 10° SSW 21:06:42 75° W 21:10:27 10° N
Tiangong 2 3.5 21:04:27 10° WNW 21:07:01 22° N 21:09:34 10° NE
Nadezhda 1 Rocket 4.0 21:02:40 10° S 21:09:02 85° E 21:15:28 10° N
Cosmos 921 Rocket 4.4 21:08:04 10° NNE 21:11:45 25° ENE 21:13:51 18° ESE
Cosmos 1624 Rocket 4.5 21:07:21 10° N 21:12:27 46° ENE 21:16:02 19° SE
Helios 1B rocket 3.0 21:12:48 10° N 21:16:53 59° WNW 21:20:56 10° SSW
NOSS 8 (E) 4.3 21:16:56 10° SSW 21:20:25 83° ESE 21:23:59 10° NNE
H-2A R/B 3.8 21:18:38 13° E 21:20:41 16° ENE 21:23:44 10° NNE
SAR-Lupe-4 3.8 21:20:05 14° S 21:23:03 67° WSW 21:26:38 10° NNW
Cosmos 1892 Rocket 3.7 21:26:07 20° SSE 21:29:00 52° E 21:33:17 10° NNE
Envisat 3.7 21:24:33 10° S 21:29:29 52° W 21:34:26 10° NNW
YAOGAN 6 2.4 21:28:48 24° SSE 21:30:46 89° WSW 21:34:17 10° NNW
Cosmos 2056 Rocket 3.5 21:27:02 10° NNW 21:32:10 66° ENE 21:35:02 26° SSE
Cosmos 2154 Rocket 4.0 21:26:04 10° N 21:32:26 77° E 21:37:24 17° SSE
CZ-4B DEB 3.8 21:33:18 17° SSW 21:35:13 38° W 21:38:02 10° NNW
Terra 4.0 21:34:27 10° ENE 21:35:34 11° ENE 21:36:41 10° NE
Okean 2 3.6 21:32:35 10° SSW 21:36:39 71° W 21:40:44 10° N
Cosmos 2082 Rocket 2.2 21:33:19 10° S 21:38:51 58° ESE 21:44:24 10° NNE
Cosmos 1606 Rocket 3.4 21:38:35 10° N 21:42:55 78° E 21:44:53 32° SSE
Cosmos 1025 Rocket 4.1 21:39:27 10° SSW 21:43:31 43° W 21:47:36 10° N
Cosmos 2278 3.9 21:38:50 10° NNW 21:44:28 58° ENE 21:47:06 31° SE
Cosmos 405 4.5 21:44:05 10° NNW 21:47:20 34° W 21:49:40 16° SSW
SPOT 5 3.1 21:46:34 34° ESE 21:47:45 43° ENE 21:51:53 10° N
COSMOS 2487 2.6 21:45:19 17° SSW 21:47:54 75° WNW 21:51:29 10° NNE
Cosmos 1726 Rocket 3.4 21:47:27 10° N 21:51:47 81° E 21:53:22 38° SSE
SL-24 DEB 4.4 21:50:57 38° SE 21:52:27 55° E 21:56:59 10° N
SL-08 RB Rocket 4.1 21:54:27 38° ESE 21:55:27 44° ENE 21:59:42 10° N
Cosmos 1656 3.9 21:52:45 10° N 21:58:05 51° ENE 21:59:56 36° ESE
Cosmos 1697 Rocket 3.5 21:54:27 10° N 21:59:39 37° ENE 22:01:23 30° E
USA 245 4.3 22:02:07 22° NNE 22:02:07 22° NNE 22:03:08 10° N
OE (NEXTSAT) 4.2 21:58:17 10° WNW 22:01:52 86° SW 22:02:02 80° SSE
Cosmos 1452 Rocket 3.8 21:58:49 10° N 22:03:57 51° ENE 22:05:20 40° ESE
ERS-1 Rocket 3.4 22:01:26 26° S 22:04:11 59° W 22:09:10 10° NNW
Cosmos 2369 3.6 21:59:22 10° NNW 22:05:08 86° ENE 22:07:20 40° SSE
MetOp-A 4.1 22:04:04 33° S 22:06:35 79° WSW 22:11:58 10° NNW
Cosmos 839 Rocket 4.4 22:01:09 10° NNW 22:07:58 90° WSW 22:12:07 33° SSE
Cosmos 2341 Rocket 4.1 22:02:12 10° N 22:08:34 76° W 22:12:20 26° S
Timation 2 Rocket 4.0 22:04:58 25° S 22:08:44 61° ESE 22:14:50 10° NNE
Cosmos 1833 Rocket 2.7 22:05:56 10° SSW 22:11:33 79° WNW 22:17:11 10° NNE
OAO 2 Rocket 3.4 22:07:11 10° W 22:11:59 52° SSW 22:12:33 49° S
Cosmos 2058 Rocket 3.0 22:07:35 10° N 22:12:02 82° W 22:13:07 51° S
SPOT 1/Viking Rocket 3.6 22:10:47 46° SE 22:12:03 60° ENE 22:17:08 10° N
Iridium 82 4.5 22:08:47 10° N 22:12:27 83° E 22:12:33 82° SE
MOS 1-B Rocket 4.1 22:10:14 31° S 22:13:12 73° WSW 22:19:38 10° NNW
Cosmos 2218 Rocket 4.0 22:10:31 10° N 22:16:38 62° E 22:18:29 44° SE
YAOGAN 11 4.2 22:17:13 52° SSW 22:18:06 70° WSW 22:22:26 10° NNW
Cosmos 1437 Rocket 4.5 22:15:20 10° NNW 22:18:40 27° W 22:20:15 21° SW
Nimbus 7 Rocket 4.4 22:15:49 10° NNE 22:21:55 89° WNW 22:25:17 29° SSW
H-2A R/B 3.2 22:25:55 32° ENE 22:25:55 32° ENE 22:29:47 10° N
Cosmos 1812 Rocket 4.3 22:26:52 10° N 22:30:39 41° ENE 22:30:39 41° ENE
Hubble Space Telescope 3.3 22:27:39 10° SW 22:27:51 11° SW 22:27:51 11° SW
Cosmos 1066 Rocket 4.5 22:30:33 30° SSW 22:33:14 64° W 22:38:50 10° N
Cosmos 1626 Rocket 3.5 22:35:57 77° W 22:36:03 77° W 22:40:22 10° N
Nadezhda 3 Rocket 4.3 22:38:29 45° ESE 22:39:00 46° E 22:45:01 10° NNE
Cosmos 158 Rocket 3.9 22:38:28 66° S 22:39:13 84° ESE 22:44:37 10° NNE
Meteor 2-21 4.3 22:37:36 10° N 22:43:40 87° W 22:44:58 58° S
Tiangong 2 3.4 22:41:39 10° NW 22:43:45 24° N 22:43:45 24° N
USA 229 DEB 4.2 22:38:01 10° NNW 22:45:01 53° NE 22:47:09 41° ESE
USA 229 4.2 22:38:07 10° NNW 22:45:06 53° NE 22:47:15 41° E
ARGOS 3.9 22:43:52 35° SW 22:45:29 45° W 22:50:41 10° NNW
CZ-4 R/B 4.5 22:43:28 10° NNE 22:47:29 45° ENE 22:47:29 45° ENE
Cosmos 1953 4.4 22:45:03 10° NNE 22:46:52 19° NE 22:46:52 19° NE
Meteor 2-21 Rocket 4.3 22:42:30 10° N 22:48:35 83° E 22:49:31 65° SSE
Cosmos 1980 Rocket 2.3 22:43:25 10° NNW 22:48:59 57° ENE 22:49:22 56° E
Cosmos 2228 4.2 22:45:14 10° NNW 22:49:04 33° W 22:49:35 32° WSW
Cosmos 864 Rocket 4.5 22:46:56 10° N 22:53:12 79° W 22:54:31 57° SSW
Cosmos 1766 4.3 22:50:45 10° N 22:53:28 43° N 22:53:28 43° N
CZ-4B R/B 4.1 22:51:07 10° NNE 22:55:10 45° ENE 22:55:10 45° ENE
Landsat 7 3.9 22:57:47 70° W 22:57:47 70° W 23:02:23 10° NNW
H-2A R/B 2.4 22:59:16 49° WSW 22:59:37 50° W 23:04:31 10° NNW
Cosmos 2322 Rocket 3.6 22:56:05 10° N 23:00:45 25° ENE 23:01:16 25° ENE
Meteor 1-21 4.4 23:06:06 60° SW 23:06:55 69° W 23:12:39 10° N
Lacrosse 5 rocket 3.9 23:06:51 10° N 23:09:46 16° NNE 23:10:52 15° NE
Terra 2.1 23:13:16 62° NW 23:13:16 62° NW 23:17:25 10° NNW
Meteor 2-8 Rocket 4.4 23:29:45 74° WSW 23:30:01 76° W 23:36:12 10° N
Lacrosse 5 2.8 23:43:44 43° NNE 23:43:44 43° NNE 23:47:17 10° NE
Cosmos 1697 Rocket 4.2 23:38:50 10° NW 23:43:07 25° W 23:43:07 25° W
SeaSat 1 4.2 23:50:22 23° NE 23:50:22 23° NE 23:54:00 10° N
ATLAS CENTAUR R/B 3.8 23:49:56 10° NNW 23:51:02 18° N 23:51:02 18° N
SL-16 R/B 2.6 23:48:31 10° NNW 23:53:16 59° NNE 23:53:16 59° NNE
CZ-2C R/B 4.2 23:55:09 39° NE 23:55:09 39° NE 23:59:39 10° N
